Regional Weather Roundup
Issued by NWS

Home | Current Version | Previous Version | Text Only | Print | Product List | Glossary Off
Versions: 1 2 3 4 5 6 7 8 9 10 11 12 13 14 15 16 17 18 19 20 21 22 23 24 25 26 27 28 29 30 31 32 33 34 35 36 37 38 39 40 41 42 43 44 45 46 47 48 49 50

701
ASUS43 KBIS 231731
RWRND
NORTH DAKOTA REGIONAL WEATHER ROUNDUP
NATIONAL WEATHER SERVICE EASTERN NORTH DAKOTA/GRAND FORKS ND
1100 AM CST FRI FEB 23 2018

  NOTE: "FAIR" INDICATES FEW OR NO CLOUDS BELOW 12,000 FEET WITH NO
  SIGNIFICANT WEATHER AND/OR OBSTRUCTIONS TO VISIBILITY.

NDZ001>003-009>011-017-231800-
...NORTHWEST NORTH DAKOTA...

CITY           SKY/WX    TMP DP  RH WIND       PRES   REMARKS
WILLISTON      FAIR      -1  -8  72 SW8       30.23S WCI -15
MINOT          CLOUDY    14   6  70 W13       30.19F WCI   0
MINOT AFB      FAIR      12   5  73 W12       30.17F WCI  -2
$$

NDZ018>021-031>035-040>046-231800-
...SOUTHWEST NORTH DAKOTA...

CITY           SKY/WX    TMP DP  RH WIND       PRES   REMARKS
BISMARCK       FAIR      12   2  64 NW10      30.27R WCI  -1
DICKINSON      FAIR       7  -2  66 W13       30.16S WCI  -9
GARRISON         N/A      6   4  91 NW10      30.21S WCI  -9
HETTINGER        N/A      1  -7  68 MISG      30.20S
$$

NDZ004>008-012>016-024-026-027-054-231800-
...NORTHEAST NORTH DAKOTA...

CITY           SKY/WX    TMP DP  RH WIND       PRES   REMARKS
GRAND FORKS    FAIR      14   5  67 NW12      30.20R WCI   0
GRAND FORKS AF FAIR      13   2  62 NW12      30.20R WCI  -1
DEVILS LAKE    FAIR       6   1  80 NW14      30.19S WCI -11
$$

NDZ022-023-025-028>030-036>039-047>053-231800-
...SOUTHEAST NORTH DAKOTA...

CITY           SKY/WX    TMP DP  RH WIND       PRES   REMARKS
JAMESTOWN      FAIR      11   3  70 NW14      30.20R WCI  -5
FARGO          PTSUNNY   17  11  77 W12       30.22R WCI   4
WAHPETON       FAIR      19  14  79 NW9       30.24R WCI   9
$$




USA.gov is the U.S. government's official web portal to all federal, state and local government web resources and services.